Powrót do katalogu

JCSAT 2B

AktywnyŁącznośćGEO
NORAD 41471·PAYLOAD·🇯🇵 Japan

Wystrzelony May 6, 2016 z Cape Canaveral Space Force Station

Loading…

TLE

ŚwieżeSource: Space-Track

Epoka: Sep 14, 2026, 14:19 UTC

1 41471U 16028A   26257.59719662  .00000000  00000-0  00000-0 0  9991
2 41471   0.0218 153.7969 0000619 357.8220 210.9473  1.00268833 38023

Śledź JCSAT 2B w czasie rzeczywistym z AllMySat

Download on the App Store